Gulkana, AK

5:46 AM AKDT on September 22, 2017 (GMT -0800)
Gulkana

Weather History for PAGK - January, 2013

Change the Weather History Date:

Wednesday, January 23, 2013

  Actual Average Record
Temperature  
Mean Temperature 6 °F -  
Max Temperature 14 °F 6 °F 43 °F (2014)
Min Temperature -2 °F -10 °F -48 °F (1952)
Degree Days  
Heating Degree Days 59    
Moisture  
Dew Point 6 °F    
Average Humidity 85    
Maximum Humidity 92    
Minimum Humidity 77    
Precipitation  
Precipitation 0.16 in - - ()
Snow  
Snow 0.00 in - - ()
Snow Depth 10.00 in    
Sea Level Pressure  
Sea Level Pressure 29.56 in    
Wind  
Wind Speed 0 mph (North)    
Max Wind Speed 4 mph    
Max Gust Speed -    
Visibility 6 miles    
Events Snow    
Averages and records for this station are not official NWS values.
T = Trace of Precipitation, MM = Missing Value Source: NWS Daily Summary

Daily Weather History Graph

Daily Weather History Graph

Search for Another Location

Airport or City:

Trip Planner

Search our weather history database for the weather conditions in past years. The results will help you decide how hot, cold, wet, or windy it might be!

Date:

Astronomy

Jan. 23, 2013 Rise Set
Actual Time 9:29 AM AKST 4:18 PM AKST
Civil Twilight 8:34 AM AKST 5:14 PM AKST
Nautical Twilight 7:37 AM AKST 6:10 PM AKST
Astronomical Twilight 6:45 AM AKST 7:03 PM AKST
Moon 1:18 PM AKST (1/23) 7:07 AM AKST (1/23)
Length of Visible Light 8h 39m
Length of Day
6h 49m
Waxing Gibbous, 90% of the Moon is Illuminated
Jan 23
Waxing Gibbous
Jan 26
Full
Feb 3
Last Quarter
Feb 9
New
Feb 17
First Quarter

Hourly Weather History & Observations

Time (AKST) Temp. Windchill Dew Point Humidity Pressure Visibility Wind Dir Wind Speed Gust Speed Precip Events Conditions
12:53 AM 10.0 °F - 7.0 °F 87% 29.68 in 10.0 mi Calm Calm - N/A   Overcast
1:53 AM 10.0 °F - 6.1 °F 84% 29.67 in 3.0 mi Calm Calm - 0.01 in Snow Light Snow
2:04 AM 10.0 °F - 7.0 °F 87% 29.52 in 2.0 mi Calm Calm - 0.00 in Snow Light Snow
2:17 AM 10.0 °F - 7.0 °F 87% 29.52 in 2.0 mi Calm Calm - 0.01 in Snow Light Snow
2:39 AM 10.0 °F - 7.0 °F 87% 29.51 in 1.8 mi Calm Calm - 0.01 in Snow Light Snow
3:02 AM 10.0 °F - 7.0 °F 87% 29.52 in 1.5 mi Calm Calm - 0.00 in Snow Light Snow
3:28 AM 10.9 °F - 7.0 °F 84% 29.50 in 2.0 mi Calm Calm - 0.01 in Snow Light Snow
3:36 AM 10.9 °F - 7.0 °F 84% 29.50 in 1.2 mi Calm Calm - 0.02 in Snow Light Snow
3:53 AM 10.0 °F - 7.0 °F 87% 29.65 in 1.0 mi Calm Calm - 0.03 in Snow Light Snow
4:35 AM 10.0 °F - 7.0 °F 87% 29.49 in 0.8 mi Calm Calm - 0.05 in Snow Light Snow
4:49 AM 10.4 °F - 6.8 °F 85% 29.49 in 1.2 mi Calm Calm - 0.06 in Snow Light Snow
4:53 AM 10.0 °F - 7.0 °F 87% 29.64 in 1.2 mi Calm Calm - 0.06 in Snow Light Snow
5:15 AM 10.9 °F - 7.0 °F 84% 29.48 in 1.5 mi Calm Calm - 0.01 in Snow Light Snow
5:46 AM 10.9 °F 4.7 °F 8.1 °F 88% 29.48 in 2.5 mi NNW 3.5 mph - 0.03 in Snow Light Snow
5:53 AM 10.9 °F - 7.0 °F 84% 29.62 in 3.0 mi Calm Calm - 0.03 in Snow Light Snow
6:04 AM 10.9 °F 4.7 °F 7.0 °F 84% 29.47 in 3.0 mi North 3.5 mph - 0.00 in Snow Light Snow
6:28 AM 10.9 °F - 8.1 °F 88% 29.47 in 5.0 mi Calm Calm - 0.00 in Snow Light Snow
6:53 AM 10.9 °F - 8.1 °F 88% 29.61 in 5.0 mi Calm Calm - 0.00 in Snow Light Snow
7:53 AM 12.0 °F - 8.1 °F 84% 29.60 in 3.0 mi Calm Calm - 0.02 in Snow Light Snow
8:53 AM 12.0 °F - 8.1 °F 84% 29.59 in 5.0 mi Calm Calm - 0.02 in Snow Light Snow
9:53 AM 12.0 °F - 9.0 °F 88% 29.59 in 10.0 mi Calm Calm - 0.00 in   Overcast
10:53 AM 12.0 °F - 9.0 °F 88% 29.58 in 10.0 mi Calm Calm - N/A   Overcast
11:53 AM 12.0 °F - 9.0 °F 88% 29.58 in 10.0 mi Calm Calm - N/A   Overcast
12:53 PM 12.9 °F - 9.0 °F 84% 29.57 in 10.0 mi Calm Calm - N/A   Overcast
1:53 PM 12.9 °F - 10.0 °F 88% 29.57 in 10.0 mi Calm Calm - N/A   Overcast
2:53 PM 14.0 °F - 10.0 °F 84% 29.56 in 10.0 mi Calm Calm - N/A   Overcast
3:53 PM 12.9 °F - 10.0 °F 88% 29.55 in 10.0 mi Calm Calm - N/A   Overcast
4:53 PM 10.0 °F - 8.1 °F 92% 29.56 in 10.0 mi Calm Calm - N/A   Mostly Cloudy
5:53 PM 8.1 °F - 5.0 °F 87% 29.56 in 10.0 mi Calm Calm - N/A   Mostly Cloudy
6:53 PM 7.0 °F - 3.9 °F 87% 29.56 in 10.0 mi Calm Calm - N/A   Overcast
7:53 PM 6.1 °F - 3.0 °F 87% 29.56 in 10.0 mi Calm Calm - N/A   Mostly Cloudy
8:53 PM 3.9 °F - 1.0 °F 88% 29.58 in 10.0 mi Calm Calm - N/A   Mostly Cloudy
9:28 PM 1.9 °F - -2.0 °F 83% 29.43 in 10.0 mi Calm Calm - N/A   Mostly Cloudy
9:53 PM 1.9 °F - -0.9 °F 88% 29.59 in 10.0 mi Calm Calm - N/A   Clear
10:53 PM -0.0 °F - -4.0 °F 83% 29.61 in 10.0 mi Calm Calm - N/A   Clear
11:16 PM -2.0 °F - -6.0 °F 83% 29.45 in 10.0 mi Calm Calm - N/A   Scattered Clouds
11:25 PM -0.9 °F - -5.1 °F 83% 29.45 in 10.0 mi Calm Calm - N/A   Mostly Cloudy
11:53 PM 1.0 °F - -2.0 °F 87% 29.61 in 10.0 mi Calm Calm - N/A   Overcast